Weather History for Garden City, KS

Change the Weather History Date:

Sunday, May 25, 2014

  Actual Average Record
Temperature  
Mean Temperature 69 °F 66 °F  
Max Temperature 79 °F 79 °F 103 °F (1953)
Min Temperature 58 °F 53 °F 36 °F (2002)
Degree Days  
Heating Degree Days 0 2  
Month to date heating degree days 116 118  
Since 1 July heating degree days 5387 5180  
Cooling Degree Days 4 4  
Month to date cooling degree days 70 51  
Year to date cooling degree days 91 63  
Growing Degree Days 20 (Base 50)    
Moisture  
Dew Point 53 °F    
Average Humidity 63    
Maximum Humidity 90    
Minimum Humidity 35    
Precipitation  
Precipitation 0.04 in 0.10 in 1.71 in (1996)
Month to date precipitation 0.64 2.22  
Year to date precipitation 1.31 6.28  
Sea Level Pressure  
Sea Level Pressure 29.89 in    
Wind  
Wind Speed 12 mph (South)    
Max Wind Speed 22 mph    
Max Gust Speed 27 mph    
Visibility 10 miles    
Events Rain    
T = Trace of Precipitation, MM = Missing Value Source: NWS Daily Summary

Daily Weather History Graph

Daily Weather History Graph

Search for Another Location

Airport:

Trip Planner

Search our weather history database for the weather conditions in past years. The results will help you decide how hot, cold, wet, or windy it might be!

Date:

Astronomy

May. 25, 2014 Rise Set
Actual Time 6:25 AM CDT 8:54 PM CDT
Civil Twilight 5:55 AM CDT 9:24 PM CDT
Nautical Twilight 5:17 AM CDT 10:02 PM CDT
Astronomical Twilight 4:36 AM CDT 10:44 PM CDT
Moon 4:27 AM CDT (5/25) 6:00 PM CDT (5/25)
Length of Visible Light 15h 29m
Length of Day
14h 29m
Waning Crescent, 10% of the Moon is Illuminated
May 25
Waning Crescent
May 28
New
Jun 5
First Quarter
Jun 12
Full
Jun 19
Last Quarter

Hourly Weather History & Observations

Time (CDT) Temp. Dew Point Humidity Pressure Visibility Wind Dir Wind Speed Gust Speed Precip Events Conditions
12:54 AM 62.6 °F 55.4 °F 77% 29.98 in 10.0 mi SSE 8.1 mph - N/A   Scattered Clouds
1:54 AM 63.0 °F 57.0 °F 81% 29.89 in 10.0 mi South 6.9 mph - N/A   Overcast
2:54 AM 61.0 °F 57.0 °F 87% 29.88 in 10.0 mi South 6.9 mph - N/A   Clear
3:54 AM 61.0 °F 57.9 °F 90% 29.84 in 10.0 mi SE 9.2 mph - N/A   Scattered Clouds
4:54 AM 60.1 °F 57.9 °F 93% 29.86 in 9.0 mi South 12.7 mph - N/A   Mostly Cloudy
5:54 AM 60.1 °F 55.0 °F 83% 29.88 in 10.0 mi South 12.7 mph - N/A   Partly Cloudy
6:54 AM 60.1 °F 55.9 °F 86% 29.88 in 10.0 mi South 8.1 mph - 0.00 in Rain Light Rain
7:54 AM 60.1 °F 55.0 °F 83% 29.86 in 10.0 mi ESE 12.7 mph - 0.04 in   Mostly Cloudy
8:54 AM 61.0 °F 54.0 °F 78% 29.89 in 10.0 mi WSW 20.7 mph 25.3 mph 0.00 in   Clear
9:12 AM 61.0 °F 55.0 °F 81% 29.98 in 10.0 mi WSW 15.0 mph - N/A   Clear
9:54 AM 66.2 °F 53.6 °F 64% 29.98 in 10.0 mi SW 8.1 mph - N/A   Clear
10:54 AM 71.1 °F 50.0 °F 47% 29.90 in 10.0 mi SW 9.2 mph - N/A   Clear
11:54 AM 72.0 °F 48.9 °F 44% 29.91 in 10.0 mi SW 10.4 mph - N/A   Clear
12:54 PM 73.9 °F 48.9 °F 41% 29.91 in 10.0 mi South 9.2 mph - N/A   Clear
1:54 PM 77.0 °F 48.9 °F 37% 29.88 in 10.0 mi Variable 6.9 mph 18.4 mph N/A   Clear
2:54 PM 77.0 °F 48.9 °F 37% 29.88 in 10.0 mi SSW 17.3 mph - N/A   Clear
3:54 PM 77.0 °F 48.0 °F 36% 29.86 in 10.0 mi South 10.4 mph 23.0 mph N/A   Clear
4:54 PM 79.0 °F 48.9 °F 35% 29.83 in 10.0 mi SSW 12.7 mph - N/A   Clear
5:54 PM 78.1 °F 51.1 °F 39% 29.83 in 10.0 mi South 16.1 mph 23.0 mph N/A   Partly Cloudy
6:54 PM 75.9 °F 51.1 °F 42% 29.83 in 10.0 mi South 11.5 mph - N/A   Clear
7:54 PM 73.0 °F 55.0 °F 53% 29.86 in 10.0 mi South 18.4 mph 25.3 mph N/A   Clear
8:54 PM 69.1 °F 57.0 °F 65% 29.90 in 10.0 mi SSW 17.3 mph - N/A   Clear
9:54 PM 66.0 °F 55.9 °F 70% 29.90 in 10.0 mi South 10.4 mph - N/A   Clear
10:54 PM 64.0 °F 55.0 °F 73% 29.89 in 10.0 mi SSE 11.5 mph - N/A   Clear
11:54 PM 62.1 °F 54.0 °F 75% 29.90 in 10.0 mi SE 9.2 mph - N/A   Clear